Preview of NWS' New Version of Forecast
This preview is not operational and should not be used for support decisions.
Latest weather observations around

Bakersfield, Meadows Field Airport (KBFL)

Using English Units (Switch to International System of Units)
Date/ Time (PDT) Wind (mph) Vis. (mi) Weather Sky Cond. Temp (°F) Rel. Humidity Wind Chill (°F) Heat Index (°F) Pressure Precip. (in)
Air Dwpt 6 hour Altimeter (inHg) Sea level (inHg) 1 hr 3 hr 6 hr
Max Min
Apr 26 06:54 SE 5 10 Clear CLR 69 54     59%     29.93 29.91      
Apr 26 05:54 ESE 5 10 Clear CLR 69 55     61%     29.91 29.89      
Apr 26 04:54 SSE 5 10 Clear CLR 68 54     61%     29.91 29.89      
Apr 26 03:54 Calm 10 Clear CLR 69 53     57%     29.91 29.88      
Apr 26 02:54 N 5 10 Clear CLR 73 53     50%   72 29.9 29.87      
Apr 26 01:54 NNW 5 10 Clear CLR 74 52     46%   73 29.9 29.88      
Apr 26 00:54 Calm 10 Clear CLR 76 53     45%   75 29.9 29.88      
Apr 25 23:54 Calm 10 Clear CLR 78 54     43%   78 29.9 29.87      
Apr 25 22:54 N 8 10 Clear CLR 79 55     44%   79 29.89 29.86      
Apr 25 21:54 N 9 10 Clear CLR 82 50     33%   81 29.88 29.85      
Apr 25 20:54 NW 5 10 Clear CLR 83 50     32%   81 29.86 29.84      
Apr 25 19:54 N 6 10 Clear   89 51     27%   86 29.84 29.81      
Apr 25 18:54 N 9 10 Clear CLR 94 51     23%   91 29.83 29.8      
Apr 25 17:54 NNW 10 10 Clear CLR 93 51     24%   90 29.83 29.81      
Apr 25 16:54 NW 9 10 Clear CLR 96 50     21%   93 29.83 29.81      
Apr 25 15:54 WNW 10 10 Clear CLR 95 52     23%   92 29.84 29.82      
Apr 25 14:54 N 11 10 Clear CLR 95 55     26%   93 29.86 29.84      
Apr 25 13:54   10 Clear CLR 92 55     29%   90 29.88 29.86      
Apr 25 12:54   10 Clear CLR 90 55     31%   88 29.9 29.88      
Apr 25 11:54 3 10 Clear CLR 87 55     34%   85 29.91 29.89      
Apr 25 10:54 SW 5 10 Clear CLR 86 51     30%   84 29.93 29.91      
Apr 25 09:54 3 10 Clear CLR 82 50     33%   81 29.93 29.91      
Apr 25 08:54 SE 7 10 Clear CLR 78 48     35%   77 29.93 29.91      
Apr 25 07:54 SE 6 10 Clear CLR 74 45     36%   73 29.93 29.91      
Apr 25 06:54 E 3 10 Clear CLR 69 45     42%     29.92 29.9      
Apr 25 05:54 ESE 3 10 Clear CLR 69 45     42%     29.9 29.88      
Apr 25 04:54 Calm 10 Clear CLR 68 45     43%     29.9 29.88      
Apr 25 03:54 Calm 10 Clear CLR 69 44     40%     29.9 29.88      
Apr 25 02:54 Calm 10 Clear CLR 69 44     40%     29.9 29.88      
Apr 25 01:54 Calm 10 Clear CLR 73 45     37%   72 29.9 29.88      
Apr 25 00:54 Calm 10 Clear CLR 72 46     40%   71 29.91 29.88      
Apr 24 23:54 NNW 7 10 Clear CLR 73 45     37%   72 29.91 29.89      
Apr 24 22:54 E 3 10 Clear CLR 76 44     32%   75 29.89 29.87      
Apr 24 21:54 ENE 6 10 Clear CLR 79 44     29%   78 29.88 29.86      
Apr 24 20:54 NNE 5 10 Clear CLR 84 45     26%   82 29.86 29.84      
Apr 24 19:54 N 6 10 Clear CLR 83 45     26%   81 29.85 29.83      
Apr 24 18:54 NNW 10 10 Clear CLR 90 45     21%   86 29.83 29.81      
Apr 24 17:54 NW 9 10 Clear CLR 94 38     14%   90 29.84 29.82      
Apr 24 16:54 WNW 9 10 Clear CLR 94 38     14%   90 29.85 29.83      
Apr 24 15:54 WNW 9 10 Clear CLR 94 35     13%   89 29.86 29.84      
Apr 24 14:54 NNW 9 10 Clear CLR 92 37     15%   88 29.89 29.87      
Apr 24 13:54 WNW 9 10 Clear CLR 91 42     18%   87 29.91 29.89      
Apr 24 12:54 NW 9 10 Clear CLR 90 44     20%   86 29.93 29.91      
Apr 24 11:54 WSW 6 10 Clear CLR 88 43     21%   85 29.95 29.93      
Apr 24 10:54 Calm 10 Clear CLR 84 43     24%   81 29.96 29.94      
Apr 24 09:54 6 10 Clear CLR 81 40     23%   80 29.96 29.94      
Apr 24 08:54 SE 6 10 Clear CLR 77 40     26%   76 29.96 29.95      
Apr 24 07:54 E 5 10 Clear CLR 72 40     31%   70 29.96 29.95      
Apr 24 06:54 SE 5 10 Clear CLR 65 44     47%     29.96 29.94      
Apr 24 05:54 Calm 10 Clear CLR 63 42     46%     29.95 29.93      
Apr 24 04:54 Calm 10 Clear CLR 68 41     37%     29.94 29.92      
Apr 24 03:54 E 8 10 Clear CLR 70 41     35%     29.94 29.92      
Apr 24 02:54 E 7 10 Clear CLR 70 42     36%     29.94 29.92      
Apr 24 01:54 Calm 10 Clear CLR 68 44     42%     29.95 29.93      
Apr 24 00:54 ESE 5 10 Clear CLR 71 44     38%   70 29.95 29.93      
Apr 23 23:54 ESE 3 10 Clear CLR 73 46     38%   72 29.95 29.93      
Apr 23 22:54 ESE 7 10 Clear CLR 74 44     34%   73 29.94 29.92      
Apr 23 21:54 NNE 5 10 Clear CLR 76 44     32%   75 29.93 29.91      
Apr 23 20:54 N 5 10 Clear CLR 72 41     33%   70 29.92 29.9      
Apr 23 19:54 NNW 7 10 Clear CLR 77 43     30%   76 29.9 29.88      
Apr 23 18:54 NW 14 10 Clear CLR 86 42     21%   83 29.88 29.87      
Apr 23 17:54 NW 14 10 Clear CLR 89 39     17%   85 29.88 29.86      
Apr 23 16:54 WNW 14 10 Clear CLR 89 36     15%   85 29.89 29.87      
Apr 23 15:54 NW 13 10 Clear CLR 89 38     17%   85 29.9 29.88      
Apr 23 14:54 NNW 10 10 Clear CLR 89 39     17%   85 29.93 29.91      
Apr 23 13:54 WSW 6 10 Clear CLR 86 39     19%   83 29.95 29.93      
Apr 23 12:54 3 10 Clear CLR 84 39     20%   81 29.97 29.95      
Apr 23 11:54 W 7 10 Clear CLR 83 40     22%   81 29.99 29.97      
Apr 23 10:54 W 8 10 Clear CLR 81 40     23%   80 30 29.99      
Apr 23 09:54 Calm 10 Clear CLR 79 39     24%   78 30.01 29.99      
Apr 23 08:54 Calm 10 Clear CLR 72 41     33%   70 30.01 29.99      
Apr 23 07:54 Calm 10 Clear CLR 70 40     33%     30.01 29.99      
Apr 23 06:54 SE 6 10 Clear CLR 59 40     49%     29.99 29.98      
Apr 23 05:54 E 6 10 Clear CLR 64 39     40%     29.99 29.98      
May 13 14:54 WNW 10 10 Clear CLR 80 45     29%   79 29.91 29.89      
May 12 17:54 WNW 17 10 Clear CLR 82 38     21%   80 29.8 29.79      
May 12 12:54 WSW 6 10 Clear CLR 78 41     27%   77 29.87 29.85      
May 12 00:54 E 6 10 Clear CLR 67 43     42%     29.76 29.74      
Jun 11 23:54 N 18 10 Mostly Cloudy BKN080 61 42     50%     29.98 29.97      
Jun 11 09:54 NNW 13 10 Mostly Clear FEW039 64 43     46%     29.93 29.92      
Jun 11 07:54 NNW 15 10 Clear CLR 61 44     54%     29.91 29.9      
Jun 10 21:54 N 6 10 Clear CLR 71 46     41%   70 29.84 29.82      
Jun 10 18:54 NW 10 10 Clear CLR 77 46     33%   76 29.82 29.8      
Jun 10 15:54 W 10 10 Clear CLR 77 47     35%   76 29.85 29.84      
Jun 10 08:54 NW 8 10 Cloudy OVC048 63 43     48%     29.96 29.94      
Jun 08 21:54 NW 14 10 Clear   76 48     37%   75 29.92 29.9      
Jun 08 14:01 W 10 9 Mostly Clear FEW001 87 37     17%   84 29.94        
Jun 08 11:54 W 7 10 Clear CLR 81 46     29%   80 29.97 29.95      
Jun 08 06:54 ENE 5 10 Clear CLR 69 46     44%     29.97 29.95      
Jun 07 08:54 3 10 Clear CLR 78 45     31%   77 29.87 29.85